[[{"header":{"parameterUnit":"m.s-1","parameterCategory":1,"la1":30.2991,"la2":30.254,"lo1":-89.0895,"lo2":-89.0444,"dy":0.0017,"dx":0.0017,"nx":28,"ny":28,"refTime":"2024-08-31T03:00:00:Z","depth":0,"parameterNumber":2,"parameterNumberName":"U-component_of_WINDS"},"data":[0,0,0,0,0,0,0,0,0,0,0,0,0,0,0,0,0,0,0,0,0,0,0,0,0,0,0,0,0,0,0,0,0,0,0,0,0,0,0,0,0,0,0,0,0,0,0,0,0,0,0,0,0,0,0,0,0,0,-2.0694,-2.0695,0,-2.0822,-2.0823,-2.0825,-2.0885,-2.0885,-2.0885,-2.0885,-2.1016,-2.1019,-2.1023,0,0,0,0,0,0,0,0,0,0,0,0,0,-2.0501,-2.0504,-2.0694,-2.0695,-2.0697,-2.0821,-2.0823,-2.0825,-2.0885,-2.0885,-2.0885,-2.0885,-2.1015,-2.1019,-2.1023,0,0,0,0,0,0,0,0,0,0,0,0,0,-2.0602,-2.0505,-2.0693,-2.0742,-2.0747,-2.0821,-2.0823,-2.0825,-2.0885,-2.0885,-2.0885,-2.0885,-2.1013,-2.1019,-2.1024,-2.1059,0,0,-2.104,-2.1043,0,0,0,0,0,0,0,0,-2.0596,-2.0609,-2.0733,-2.0739,-2.0745,-2.0837,-2.0803,-2.0904,-2.0885,-2.0833,-2.0885,-2.0885,-2.0957,-2.0967,-2.0991,-2.1065,-2.1071,-2.1041,-2.1044,-2.1046,-2.1048,0,0,0,0,0,0,0,-2.0589,-2.0604,-2.0744,-2.0735,-2.0742,-2.0757,-2.0771,-2.0823,-2.0894,-2.0837,-2.0842,-2.0856,-2.096,-2.0986,-2.0994,-2.1073,-2.1041,-2.1045,-2.1049,-2.1051,-2.1182,-2.1182,0,0,0,0,0,0,-2.0574,-2.0598,-2.074,-2.0748,-2.0669,-2.0761,-2.0777,-2.0808,-2.0893,-2.0906,-2.0856,-2.0859,-2.0977,-2.0988,-2.0999,-2.1046,-2.1046,-2.1051,-2.1054,-2.1182,-2.1182,-2.1183,0,0,0,0,0,0,-2.057,-2.0586,-2.0735,-2.0674,-2.0694,-2.0764,-2.0799,-2.081,-2.0836,-2.0908,-2.0921,-2.087,-2.0977,-2.0992,-2.1044,-2.1052,-2.1054,-2.1059,-2.1182,-2.1182,-2.1182,-2.114,0,0,0,0,0,0,-2.0564,-2.0585,-2.0599,-2.0674,-2.0697,-2.0777,-2.0799,-2.0813,-2.0845,-2.085,-2.0924,-2.0936,-2.0978,-2.1035,-2.1049,-2.1059,-2.1063,-2.1181,-2.1182,-2.1182,-2.1141,-2.1139,-2.1137,0,0,0,0,0,-2.0557,-2.0582,-2.0599,-2.0616,-2.0717,-2.0778,-2.0791,-2.0839,-2.0846,-2.086,-2.0906,-2.0933,-2.1048,-2.104,-2.1056,-2.1068,-2.1181,-2.1182,-2.1182,-2.1142,-2.1139,-2.1137,0,0,0,0,0,0,-2.0506,-2.0593,-2.0613,-2.0663,-2.0712,-2.0788,-2.0808,-2.0835,-2.0884,-2.0886,-2.0943,-2.0959,-2.1006,-2.1042,-2.1032,-2.1106,-2.1117,-2.1121,-2.1081,-2.1079,-2.1077,-2.1068,-2.1067,0,0,0,0,0,-2.0501,-2.0543,-2.0616,-2.0653,-2.0677,-2.0738,-2.0766,-2.0799,-2.0853,-2.0874,-2.0924,-2.0975,-2.1023,-2.1053,-2.1101,-2.1146,-2.1163,-2.1162,-2.116,-2.1158,-2.1161,-2.1188,-2.1188,-2.1185,-2.1185,-2.1185,0,0,-2.049,-2.0542,-2.0566,-2.0644,-2.0687,-2.0729,-2.0755,-2.0799,-2.0831,-2.0881,-2.0933,-2.0971,-2.1032,-2.108,-2.1105,-2.1112,-2.1165,-2.1159,-2.1157,-2.1161,-2.1188,-2.1188,-2.1189,-2.1185,-2.1185,-2.1185,0,0,-2.0492,-2.0536,-2.0572,-2.0613,-2.0676,-2.0717,-2.0725,-2.0796,-2.0823,-2.0876,-2.0914,-2.0953,-2.1034,-2.1076,-2.1107,-2.1124,-2.1151,-2.1138,-2.1128,-2.1153,-2.1154,-2.1154,-2.116,-2.1162,-2.114,-2.114,-2.114,0,-2.0471,-2.0536,-2.0586,-2.0628,-2.0661,-2.0708,-2.0744,-2.0782,-2.0857,-2.0879,-2.0886,-2.0989,-2.1033,-2.1092,-2.1096,-2.112,-2.1131,-2.113,-2.1149,-2.115,-2.1152,-2.1158,-2.116,-2.1138,-2.1138,-2.1139,-2.1139,0,-2.0507,-2.0552,-2.0573,-2.0644,-2.068,-2.0719,-2.0774,-2.0804,-2.0833,-2.0873,-2.0926,-2.098,-2.104,-2.1056,-2.1085,-2.1119,-2.1122,-2.1138,-2.1151,-2.1149,-2.1156,-2.1159,-2.1135,-2.1136,-2.1137,-2.1137,0,0,-2.0482,-2.058,-2.0587,-2.0619,-2.0692,-2.0728,-2.0768,-2.0826,-2.0851,-2.0901,-2.0936,-2.1003,-2.1019,-2.1055,-2.1089,-2.1111,-2.1121,-2.1125,-2.1127,-2.1122,-2.1162,-2.1149,-2.1151,-2.1138,-2.1139,-2.114,-2.1157,0,-2.0495,-2.0569,-2.0615,-2.0671,-2.0713,-2.0756,-2.0792,-2.084,-2.0877,-2.0918,-2.096,-2.1006,-2.1023,-2.1045,-2.1069,-2.1114,-2.1129,-2.1114,-2.1172,-2.1174,-2.1156,-2.1155,-2.1142,-2.1156,-2.116,-2.116,-2.1161,0,-2.052,-2.0568,-2.0628,-2.0696,-2.0715,-2.0746,-2.0802,-2.0841,-2.0896,-2.0922,-2.0961,-2.0995,-2.104,-2.1048,-2.111,-2.1098,-2.1125,-2.115,-2.1152,-2.116,-2.1167,-2.1163,-2.1161,-2.1163,-2.1165,-2.1165,-2.1165,0,-2.0495,-2.0576,-2.0622,-2.0649,-2.0729,-2.0749,-2.0783,-2.0839,-2.087,-2.092,-2.0941,-2.0994,-2.1024,-2.1065,-2.1112,-2.1114,-2.117,-2.1182,-2.1193,-2.1191,-2.1203,-2.1202,-2.1205,-2.1219,-2.1219,-2.1219,-2.1219,0,-2.0505,-2.054,-2.0612,-2.0641,-2.0681,-2.0733,-2.0772,-2.0809,-2.0858,-2.0895,-2.0936,-2.0969,-2.103,-2.1071,-2.1108,-2.1154,-2.1167,-2.1189,-2.1199,-2.1186,-2.1183,-2.1205,-2.1205,-2.1219,-2.1219,-2.1219,-2.1219,0,-2.0485,-2.0535,-2.0588,-2.0659,-2.0677,-2.0704,-2.0765,-2.0794,-2.0833,-2.0879,-2.0893,-2.0954,-2.1005,-2.1056,-2.1124,-2.1149,-2.1194,-2.1207,-2.1175,-2.1181,-2.1189,-2.1188,-2.1207,-2.1213,-2.1221,-2.1221,-2.1221,0,-2.0488,-2.0516,-2.0589,-2.0616,-2.0649,-2.0693,-2.0725,-2.0777,-2.0809,-2.0874,-2.0895,-2.0948,-2.0994,-2.1072,-2.1123,-2.1175,-2.119,-2.1194,-2.1199,-2.1185,-2.1191,-2.1189,-2.1192,-2.1192,-2.1191,-2.1191,-2.1191,0,-2.0488,-2.0511,-2.0556,-2.0609,-2.0646,-2.0691,-2.0737,-2.0757,-2.0817,-2.0851,-2.0903,-2.0938,-2.1007,-2.106,-2.1118,-2.1153,-2.1182,-2.1189,-2.1194,-2.1182,-2.1162,-2.1173,-2.1171,-2.1188,-2.1189,-2.1189,-2.1189,-2.1189,-2.048,-2.0507,-2.0562,-2.0611,-2.0651,-2.0692,-2.0723,-2.0766,-2.081,-2.087,-2.0898,-2.0949,-2.1004,-2.1085,-2.112,-2.1161,-2.1169,-2.1177,-2.1179,-2.118,-2.1177,-2.1155,-2.1172,-2.1172,-2.1172,-2.1173,-2.1173,0,-2.0483,-2.052,-2.0564,-2.0627,-2.0665,-2.0688,-2.074,-2.077,-2.0815,-2.0863,-2.0907,-2.0966,-2.1017,-2.1071,-2.1125,-2.1148,-2.1163,-2.1161,-2.116,-2.1168,-2.1167,-2.1157,-2.1148,-2.1148,-2.1148,-2.1148,-2.1148,-2.1148,-2.0489,-2.0535,-2.0564,-2.063,-2.0668,-2.0719,-2.0746,-2.0785,-2.0824,-2.0888,-2.093,-2.0965,-2.1016,-2.1074,-2.1122,-2.1137,-2.1155,-2.1149,-2.1167,-2.1166,-2.1168,-2.1169,-2.116,-2.1152,-2.1152,-2.1165,-2.1165,-2.1165]},{"header":{"parameterUnit":"m.s-1","parameterCategory":1,"la1":30.2991,"la2":30.254,"lo1":-89.0895,"lo2":-89.0444,"dy":0.0017,"dx":0.0017,"nx":28,"ny":28,"refTime":"2024-08-31T03:00:00:Z","depth":0,"parameterNumber":3,"parameterNumberName":"V-component_of_WINDS"},"data":[0,0,0,0,0,0,0,0,0,0,0,0,0,0,0,0,0,0,0,0,0,0,0,0,0,0,0,0,0,0,0,0,0,0,0,0,0,0,0,0,0,0,0,0,0,0,0,0,0,0,0,0,0,0,0,0,0,0,1.5679,1.5679,0,1.5695,1.5695,1.5695,1.5631,1.5629,1.5627,1.5626,1.5643,1.5645,1.5647,0,0,0,0,0,0,0,0,0,0,0,0,0,1.5595,1.5597,1.5679,1.5679,1.5679,1.5695,1.5695,1.5695,1.5632,1.5629,1.5627,1.5625,1.5642,1.5645,1.5647,0,0,0,0,0,0,0,0,0,0,0,0,0,1.5623,1.5597,1.5679,1.5649,1.5647,1.5695,1.5695,1.5695,1.5632,1.5629,1.5626,1.5624,1.5641,1.5644,1.5648,1.5725,0,0,1.5658,1.5659,0,0,0,0,0,0,0,0,1.5621,1.5626,1.5654,1.5652,1.5649,1.5658,1.5671,1.5705,1.5633,1.5638,1.5626,1.5622,1.565,1.5653,1.5662,1.5725,1.5726,1.5658,1.566,1.5661,1.5662,0,0,0,0,0,0,0,1.562,1.5625,1.5685,1.5654,1.5651,1.5636,1.5637,1.5677,1.566,1.5637,1.5632,1.5635,1.5648,1.5659,1.5662,1.5726,1.5658,1.5661,1.5663,1.5664,1.5854,1.5857,0,0,0,0,0,0,1.5621,1.5624,1.5685,1.5686,1.5628,1.564,1.5641,1.5658,1.5659,1.5656,1.5638,1.5632,1.5654,1.5658,1.5662,1.5752,1.5661,1.5664,1.5666,1.5851,1.5855,1.5858,0,0,0,0,0,0,1.562,1.5627,1.5684,1.5654,1.566,1.5644,1.5664,1.566,1.567,1.5659,1.5656,1.5651,1.5652,1.5657,1.5709,1.5752,1.5666,1.5669,1.5848,1.5852,1.5857,1.5934,0,0,0,0,0,0,1.5618,1.5627,1.5656,1.5655,1.5661,1.5731,1.5667,1.5662,1.5676,1.5669,1.5671,1.5669,1.565,1.5705,1.5713,1.5755,1.5672,1.5844,1.585,1.5855,1.5927,1.594,1.5952,0,0,0,0,0,1.5615,1.5678,1.5658,1.5666,1.5697,1.5734,1.5738,1.5715,1.568,1.5709,1.5702,1.5669,1.5746,1.5711,1.5719,1.5763,1.5841,1.5848,1.5855,1.5922,1.5938,1.5951,0,0,0,0,0,0,1.5685,1.5677,1.5655,1.5719,1.5728,1.5723,1.5759,1.5732,1.5751,1.5744,1.5715,1.5716,1.5774,1.5773,1.5734,1.5838,1.5787,1.5796,1.5836,1.5851,1.5863,1.5862,1.5674,0,0,0,0,0,1.5708,1.5738,1.5729,1.5787,1.5792,1.5775,1.579,1.5772,1.5779,1.5783,1.578,1.5789,1.5815,1.5833,1.5856,1.5927,1.5927,1.5961,1.5974,1.5984,1.5992,1.6029,1.6044,1.5881,1.5881,1.5881,0,0,1.5755,1.5755,1.5775,1.5801,1.5805,1.5837,1.5778,1.5815,1.5838,1.5788,1.5837,1.5836,1.5844,1.5906,1.5933,1.5907,1.6037,1.5992,1.6,1.6003,1.6038,1.6053,1.6067,1.5886,1.5885,1.5884,0,0,1.5858,1.5861,1.5909,1.5914,1.5922,1.591,1.5922,1.5921,1.5918,1.5967,1.593,1.5957,1.6003,1.6011,1.602,1.6126,1.6097,1.6135,1.6198,1.6235,1.6248,1.6259,1.6297,1.6311,1.6143,1.6143,1.6143,0,1.5917,1.5963,1.5937,1.5976,1.5988,1.5944,1.5992,1.5999,1.6014,1.6024,1.5995,1.6051,1.6054,1.6117,1.6143,1.6152,1.6165,1.6134,1.6248,1.6259,1.627,1.6305,1.632,1.6148,1.6147,1.6147,1.6146,0,1.6034,1.6067,1.6105,1.612,1.6137,1.6181,1.6161,1.6181,1.6161,1.6153,1.6203,1.6204,1.6227,1.6241,1.6222,1.6302,1.6286,1.6253,1.6202,1.629,1.6323,1.6337,1.6154,1.6153,1.6151,1.615,0,0,1.6182,1.6182,1.6196,1.6203,1.6208,1.6233,1.6275,1.6297,1.6314,1.6326,1.6361,1.6401,1.637,1.6382,1.6363,1.6396,1.648,1.6359,1.6359,1.6382,1.6568,1.6592,1.6608,1.646,1.6463,1.6465,1.6567,0,1.6283,1.6354,1.6332,1.6403,1.6434,1.6392,1.6428,1.6436,1.6429,1.6454,1.6446,1.6475,1.6433,1.6439,1.647,1.6463,1.6517,1.6455,1.6492,1.6494,1.6492,1.6626,1.6652,1.6748,1.658,1.6582,1.6583,0,1.6411,1.6427,1.6502,1.6502,1.6514,1.6547,1.6565,1.6589,1.6597,1.6589,1.6602,1.6577,1.6618,1.6567,1.6623,1.6582,1.6596,1.6595,1.6598,1.6601,1.6544,1.6632,1.6778,1.6793,1.6604,1.6602,1.6601,0,1.6511,1.6552,1.6602,1.6609,1.661,1.6634,1.6636,1.664,1.6655,1.6671,1.6681,1.6702,1.6714,1.6731,1.6712,1.6676,1.6771,1.6719,1.6767,1.6768,1.6789,1.6788,1.6939,1.6798,1.6798,1.6797,1.6797,0,1.6626,1.6674,1.6647,1.6678,1.673,1.6704,1.6756,1.6753,1.6757,1.6787,1.6753,1.6781,1.6755,1.6781,1.6767,1.6816,1.6821,1.6817,1.6813,1.682,1.6821,1.6829,1.6822,1.6801,1.68,1.6799,1.6799,0,1.6747,1.6731,1.6783,1.678,1.678,1.6819,1.6816,1.6844,1.6835,1.6873,1.688,1.6866,1.6895,1.6878,1.6908,1.6898,1.6962,1.6949,1.696,1.6956,1.7006,1.7001,1.7168,1.7188,1.7034,1.7035,1.7036,0,1.6822,1.6858,1.6858,1.6875,1.6879,1.6907,1.6922,1.6898,1.6915,1.6926,1.6953,1.6979,1.6999,1.7048,1.704,1.7063,1.705,1.7107,1.7053,1.706,1.7051,1.7049,1.7053,1.7118,1.7119,1.7121,1.7122,0,1.6957,1.6947,1.6969,1.6989,1.7008,1.7023,1.7034,1.7051,1.7026,1.7047,1.7077,1.7092,1.7122,1.7149,1.7169,1.717,1.7143,1.7139,1.7151,1.716,1.7165,1.7163,1.699,1.7135,1.7134,1.7133,1.7132,1.7132,1.7057,1.7086,1.7091,1.7117,1.7124,1.7136,1.7162,1.7156,1.718,1.7203,1.7187,1.7222,1.7228,1.7251,1.7257,1.7284,1.7261,1.7279,1.7284,1.7289,1.7295,1.716,1.7287,1.7287,1.7287,1.7286,1.7286,0,1.719,1.7191,1.7215,1.7232,1.7253,1.7225,1.7236,1.7256,1.7287,1.7295,1.7315,1.7349,1.7374,1.7369,1.7392,1.7415,1.7403,1.7422,1.742,1.7421,1.7314,1.7301,1.7431,1.7431,1.7431,1.7431,1.7431,1.7431,1.7261,1.731,1.7301,1.7352,1.7352,1.7386,1.7395,1.7406,1.7412,1.7452,1.7473,1.7469,1.7471,1.7495,1.7517,1.7515,1.7525,1.7549,1.7542,1.7443,1.7428,1.7415,1.7402,1.7551,1.7551,1.7646,1.7647,1.7648]}]]